Flag for Venezuela Weather past 2 weeks in Cumaná, Venezuela

Now
79 °F

Passing clouds.


Feels Like: 82 °F
Forecast: 79 / 90 °F
Wind: N/A

Location: Margarita / Del Carib

Current Time: Apr 1, 2015 at 11:24:50 PM

Latest Report: Apr 1, 2015 at 10:30 PM


Visibility: N/A

Pressure: 29.92 "Hg

Humidity: 84%

Dew point: 73 °F

Location of CumanáLocation

Historic Weather in Cumaná — Graph

°F

Cumaná temperature yesterday

Maximum temperature yesterday: 88 °F (at 1:30 PM)
Minimum temperature yesterday: 77 °F (at 12:30 AM)
Average temperature yesterday: 81 °F

Past Weeks' High & Low Weather Summary

 TemperatureHumidityPressure
High102 °F (Mar 19, 3:30 PM)100% (Mar 26, 9:30 PM)30.01 "Hg (Mar 26, 9:30 PM)
Low72 °F (Mar 22, 8:30 PM)24% (Mar 24, 2:30 PM)29.83 "Hg (Mar 19, 5:30 PM)
Average82 °F74%29.92 "Hg
* Reported Mar 17 9:30 PM — Apr 1 9:30 PM, Cumaná, Weather by CustomWeather, © 2015

Note: Actual official high and low records may vary slightly from our data, if they occured in-between our weather recording intervals... More about our weather records

Advertising

Cumaná weather history for previous 24 hours

 ConditionsComfort  
Time TempWeatherWind HumidityBarometerVisibility
9:30 PM
Wed, Apr 1
79 °FPassing clouds.N/A89%29.89 "HgN/A
8:30 PM79 °FPassing clouds.N/A84%29.89 "HgN/A
7:30 PM79 °FPassing clouds.N/A84%29.86 "HgN/A
6:30 PM81 °FPassing clouds.N/A79%29.86 "HgN/A
5:30 PM86 °FPassing clouds.N/A62%29.83 "HgN/A
4:30 PM88 °FPassing clouds.N/A59%29.83 "HgN/A
3:30 PM90 °FPassing clouds.N/A49%29.86 "HgN/A
2:30 PM91 °FPassing clouds.N/A46%29.86 "HgN/A
1:30 PM90 °FPassing clouds.N/A46%29.89 "HgN/A
12:30 PM88 °FPassing clouds.N/A52%29.92 "HgN/A
11:30 AM86 °FPassing clouds.N/A52%29.92 "HgN/A
10:30 AM86 °FPassing clouds.N/A55%29.95 "HgN/A
9:30 AM84 °FPassing clouds.N/A66%29.95 "HgN/A
8:30 AM82 °FPassing clouds.N/A74%29.92 "HgN/A
7:30 AM81 °FPassing clouds.N/A79%29.89 "HgN/A
6:30 AM79 °FPassing clouds.N/A89%29.92 "HgN/A
5:30 AM79 °FPassing clouds.N/A84%29.89 "HgN/A
4:30 AM79 °FPassing clouds.N/A84%29.89 "HgN/A
3:30 AM79 °FPassing clouds.N/A84%29.89 "HgN/A
2:30 AM79 °FPassing clouds.N/A84%29.92 "HgN/A
1:30 AM79 °FPassing clouds.N/A84%29.92 "HgN/A
12:30 AM79 °FPassing clouds.N/A84%29.92 "HgN/A
11:30 PM
Tue, Mar 31
79 °FPassing clouds.N/A89%29.92 "HgN/A
Weather by CustomWeather, © 2015

See weather overviewHow to use our weather pages